SCP
8 7 6 6 6 5 5 5 5 5 6 7 6 4 3 3 2 2 2 2 2 2 1 1 1 1 0 0 0 0 0 0 0 0 0 0 0 0 0 0 0 0 0
9 8 7 6 6 5 5 5 5 5 6 6 4 3 3 3 3 2 2 2 2 2 2 1 1 1 0 0 0 0 0 0 0 0 0 0 0 0 0 0 0 0 0
12 10 9 7 6 5 5 5 5 5 5 4 3 3 3 3 3 2 2 2 3 3 2 2 1 1 0 0 0 0 0 0 0 0 0 0 0 0 0 0 0 0 0
13 12 11 8 7 6 5 5 5 4 3 3 3 3 3 3 3 3 2 2 2 3 3 2 1 1 1 0 0 0 0 0 0 0 0 0 0 0 0 0 0 0 0
15 14 12 10 7 6 5 4 4 4 3 3 2 2 2 2 3 3 2 2 2 2 3 2 2 1 1 0 0 0 0 0 0 0 0 0 0 0 0 0 0 0 0
16 15 13 10 8 6 5 4 4 4 3 3 3 3 3 2 3 3 2 2 2 2 2 2 2 1 1 1 1 1 1 1 1 0 0 0 0 0 0 0 0 0 0
14 12 10 8 7 6 5 4 4 4 4 4 4 4 3 3 3 3 3 3 2 2 2 2 2 2 1 1 1 1 1 1 1 1 0 0 0 0 0 0 0 0 0
9 8 6 5 5 5 5 5 4 4 4 4 5 4 4 3 3 3 3 3 2 2 2 2 2 2 2 1 1 1 1 1 1 1 1 0 0 0 0 0 0 0 0
5 5 4 4 5 5 5 5 4 4 4 5 5 4 3 3 2 2 3 3 2 2 2 2 2 2 2 1 1 1 1 1 1 1 1 0 0 0 0 0 0 0 0
4 4 4 4 5 5 5 5 5 5 5 5 5 4 4 3 2 2 2 2 2 2 2 2 2 2 2 1 1 1 0 1 1 1 1 0 0 0 0 0 0 0 0
3 3 3 3 4 5 5 5 5 5 5 5 5 5 4 3 2 2 2 2 2 2 2 2 2 2 2 2 1 1 1 1 1 1 1 0 0 0 0 0 0 0 0
2 2 2 3 4 4 4 4 5 5 5 5 5 4 4 3 3 2 2 2 2 2 2 2 2 2 2 2 1 1 1 1 1 1 1 0 0 0 0 0 0 0 0
1 2 2 2 3 4 4 4 4 4 4 4 4 4 4 3 3 3 2 2 2 2 2 2 2 2 2 2 2 1 1 1 1 1 1 0 0 0 0 0 0 0 0
2 2 2 2 3 3 3 3 3 3 4 4 4 4 4 4 3 3 2 2 2 2 2 2 2 2 2 2 2 2 1 1 1 2 1 0 0 0 0 0 0 0 0
3 2 2 2 2 2 3 3 3 3 4 4 4 4 4 3 3 3 2 2 2 2 2 2 2 2 2 2 2 2 2 1 2 1 1 0 0 0 0 0 0 0 0
3 2 2 2 2 2 3 3 3 4 4 3 3 3 3 3 2 2 2 2 1 1 1 2 1 2 2 2 1 2 2 2 2 1 1 0 0 0 0 0 0 0 0
2 2 1 1 2 2 3 3 3 3 3 3 2 2 2 2 1 2 1 1 1 1 1 1 1 1 1 1 1 1 2 2 1 1 0 0 0 0 0 0 0 0 0
2 2 2 2 2 2 3 3 3 3 3 2 2 1 1 1 1 1 1 1 1 1 1 1 1 1 1 0 0 0 1 1 1 1 0 0 0 0 0 0 0 0 0
2 2 2 2 2 2 3 3 3 2 2 2 1 1 1 1 1 1 1 1 2 2 2 1 1 1 0 0 0 0 0 1 0 0 0 0 0 0 0 0 0 0 0
3 2 2 2 2 2 3 3 2 2 2 1 1 1 1 1 1 1 1 1 1 2 2 2 1 1 1 0 0 0 0 0 0 0 0 0 0 0 0 0 0 0 0
3 3 3 3 2 3 3 3 2 2 1 1 1 2 1 1 1 1 1 1 1 2 2 2 1 1 1 0 0 0 0 0 0 0 0 0 0 0 0 0 0 0 0
3 3 3 3 3 3 3 2 2 2 2 2 2 2 2 2 1 1 1 1 1 2 2 2 2 1 1 1 0 0 0 0 0 0 0 0 0 0 0 0 0 0 0
3 3 3 3 3 3 3 3 2 2 2 2 2 2 2 2 1 1 1 1 2 2 2 2 2 2 1 1 1 0 0 0 0 0 0 0 0 0 0 0 0 0 0
3 3 3 3 3 3 3 3 2 2 2 2 2 2 2 2 2 2 2 2 2 2 2 2 2 2 2 2 1 1 0 0 0 0 0 0 0 0 0 0 0 0 0
3 3 3 2 2 3 3 2 2 2 2 2 3 2 2 2 1 1 1 1 1 2 2 2 3 3 2 2 2 1 0 0 0 0 0 0 0 0 0 0 0 0 0
3 3 2 2 2 2 2 2 2 1 2 2 2 2 2 2 1 1 1 1 1 1 1 1 2 3 2 2 1 1 0 0 0 0 0 0 0 0 0 0 0 0 0
Wind_Speed
12 12 15 15 14 14 14 13 13 11 9 7 6 6 5 5 5 4 6 6 6 5 5 4 3 3 3 3 3 2 2 1 2 3 3 3 2 0 1 1 2 3 3
10 12 13 14 15 16 15 14 13 12 10 8 5 4 5 4 4 4 5 6 6 6 5 5 4 4 3 3 3 3 2 1 2 3 3 2 3 3 1 0 2 2 2
17 15 15 15 15 15 16 15 13 12 10 9 6 5 4 3 3 4 4 5 6 6 5 6 5 4 3 3 3 3 4 2 1 2 4 4 3 1 2 1 1 2 2
15 15 15 15 16 15 14 13 13 12 10 10 9 10 7 5 5 4 4 5 6 6 6 6 5 4 3 3 3 3 3 4 2 0 1 2 4 3 0 2 1 1 2
16 16 16 16 14 13 13 12 12 11 10 10 11 10 7 5 4 4 5 5 4 5 6 6 5 5 4 4 3 3 3 3 3 2 1 1 2 2 3 1 1 1 1
15 15 13 11 10 11 12 12 12 11 11 11 10 10 10 8 8 7 7 5 3 3 5 6 5 5 4 4 4 4 4 3 3 2 2 3 3 2 3 3 2 1 2
14 14 13 13 13 14 13 13 13 12 11 11 10 10 10 11 11 9 8 6 4 3 5 5 5 4 4 4 4 3 3 3 3 3 2 2 2 3 3 3 2 1 1
9 13 15 15 15 15 15 14 14 12 12 11 10 9 10 8 7 8 7 7 5 5 6 5 5 5 5 5 4 3 3 3 3 3 3 2 1 2 3 4 4 2 1
8 10 12 13 13 14 14 15 15 12 12 11 10 9 9 9 8 8 7 6 5 6 7 6 6 5 5 5 5 3 3 3 3 3 3 2 1 1 2 3 4 5 3
8 8 8 9 11 12 11 12 13 13 11 10 10 10 9 9 9 8 8 7 7 6 7 6 6 5 5 5 5 3 3 4 3 2 3 2 1 2 2 2 2 3 4
9 9 8 8 9 9 11 11 12 11 10 10 9 9 9 8 8 8 8 8 7 8 8 8 7 6 6 5 5 4 4 4 3 2 3 3 3 2 2 2 2 2 3
6 9 10 9 9 10 11 11 12 11 11 10 9 8 8 8 8 8 8 8 8 8 8 8 7 7 6 6 6 5 5 5 4 4 3 3 3 3 2 2 2 2 2
6 6 8 9 10 11 11 11 11 11 10 10 9 9 8 9 9 8 8 8 8 8 8 8 8 7 7 6 6 6 5 5 5 5 5 4 4 3 2 2 2 1 2
7 7 8 8 8 9 10 11 10 10 10 10 10 10 10 10 9 8 8 8 8 8 9 8 8 8 7 7 6 6 5 5 5 5 5 5 5 5 4 3 3 2 2
6 7 8 8 8 8 8 9 10 10 11 11 11 11 9 9 8 8 8 8 9 10 8 8 8 7 7 7 8 6 7 6 5 5 5 5 7 8 6 4 4 4 2
6 7 8 8 9 9 9 9 9 9 10 11 11 9 9 9 9 9 9 8 8 8 8 9 9 8 8 10 13 9 7 6 6 6 5 5 6 8 9 9 9 8 5
6 7 8 9 9 9 9 10 10 9 10 10 10 10 10 10 10 11 10 10 9 8 8 8 9 9 9 12 14 14 7 7 7 7 5 5 5 7 5 6 7 7 8
4 5 6 7 7 8 8 8 8 9 9 10 10 10 10 10 9 9 10 10 8 8 8 9 9 8 9 13 14 14 8 6 7 7 7 6 5 6 6 5 5 5 5
3 4 6 6 7 7 8 8 8 8 9 9 9 10 11 11 10 11 10 9 8 8 8 8 9 9 9 13 13 12 6 5 7 7 7 7 6 9 10 6 6 5 5
2 3 4 4 5 6 7 8 8 8 9 9 9 9 10 11 11 11 9 7 7 7 7 7 8 9 8 12 14 13 5 5 5 4 5 8 8 9 10 7 6 7 6
3 3 4 4 5 6 7 8 8 9 9 8 7 8 9 10 9 9 7 7 7 7 7 7 6 7 8 11 14 14 7 7 5 5 4 5 10 11 11 9 7 9 6
5 4 3 2 2 4 6 6 7 7 6 7 7 7 7 8 8 7 7 7 8 7 7 6 5 4 6 8 11 14 12 9 6 6 5 5 9 9 9 8 8 9 6
4 4 3 2 2 2 4 5 5 4 6 6 7 7 7 6 6 7 7 6 6 6 6 5 5 4 3 5 10 13 14 12 7 5 6 7 8 8 6 8 8 6 3
4 4 4 4 3 2 1 1 1 3 5 5 5 5 6 6 5 5 5 5 6 6 5 5 5 4 4 4 4 5 6 7 6 3 3 5 5 4 4 4 4 4 4
3 4 4 3 2 2 2 1 1 2 3 4 4 4 5 6 5 4 3 4 5 6 7 6 5 5 6 7 8 7 6 6 6 4 2 1 1 2 1 1 2 2 2
4 5 4 3 3 2 2 2 2 2 3 3 3 3 3 4 5 5 3 3 3 3 5 6 6 4 6 6 8 9 9 9 9 6 3 4 3 3 3 3 2 2 3
Wind_Direction
177 167 167 166 165 166 167 165 162 164 159 153 155 154 158 158 158 161 160 155 151 150 147 148 142 137 141 156 146 126 117 113 114 83 47 18 19 66 179 171 157 174 182
164 171 170 169 170 170 170 167 167 168 166 164 160 156 152 155 159 161 158 158 155 158 160 150 150 146 139 140 142 130 125 124 130 126 104 45 357 344 328 175 171 166 155
173 175 176 175 171 173 173 172 171 168 167 160 143 133 118 114 139 162 167 173 166 165 160 157 150 149 150 157 160 149 143 149 154 151 141 145 195 284 335 315 178 166 161
174 177 177 177 177 177 172 167 168 168 168 163 161 160 163 168 177 170 169 173 167 165 162 157 153 154 155 158 169 156 148 141 155 176 147 157 153 143 88 334 332 188 175
178 179 181 180 178 174 170 166 166 168 169 170 171 169 168 167 153 152 159 166 166 166 162 156 155 157 156 159 156 140 142 145 152 162 152 115 95 114 136 190 300 335 271
179 178 177 170 170 170 168 167 166 170 172 172 172 173 170 165 160 166 170 169 164 167 165 156 155 157 156 158 159 151 148 146 139 144 149 151 149 162 148 160 197 227 282
177 175 173 173 175 173 174 173 172 174 176 175 177 178 176 173 174 174 174 170 168 171 176 162 158 159 162 159 152 147 149 147 139 148 148 149 162 160 150 141 156 178 300
179 181 181 180 180 177 176 176 177 177 178 179 181 179 175 176 177 176 173 177 178 175 170 163 163 164 163 159 150 147 155 146 144 145 139 130 138 150 152 151 141 118 358
177 185 185 182 181 179 178 177 176 177 179 181 178 177 176 174 177 175 174 174 172 171 166 165 164 165 161 157 150 149 155 145 145 143 138 133 138 132 138 144 147 145 156
169 175 182 185 180 177 172 173 174 176 176 176 178 179 178 176 175 172 176 176 173 167 163 167 168 163 160 158 149 146 153 145 150 150 135 128 130 103 105 129 138 142 149
169 168 177 184 179 168 168 172 172 171 174 176 176 173 174 172 171 174 176 174 170 167 171 172 170 168 167 162 155 160 160 160 164 155 150 154 143 117 104 101 115 133 136
173 167 166 172 175 172 173 173 172 175 179 175 172 173 171 169 172 175 175 170 170 174 174 171 170 175 172 168 168 177 174 174 178 179 162 171 152 135 129 114 114 134 148
154 153 157 167 173 174 174 173 174 177 177 171 172 175 174 176 179 177 173 170 170 174 174 172 176 179 176 175 179 180 183 186 188 185 179 180 159 158 158 146 139 144 131
153 156 164 172 174 174 174 174 175 176 175 174 177 181 183 183 182 176 172 172 172 176 179 180 181 181 180 181 182 182 185 189 194 192 188 184 178 179 176 168 167 153 133
161 166 170 171 170 174 176 175 176 177 177 178 183 188 185 181 178 178 177 175 178 184 181 179 183 183 182 189 185 186 189 189 194 197 196 195 194 191 185 176 174 158 148
170 169 168 170 175 179 178 175 178 179 178 182 188 185 181 180 182 183 180 179 183 183 179 183 184 189 197 195 191 187 189 189 191 196 204 208 200 199 197 190 182 173 169
173 173 176 177 181 184 181 180 180 178 180 185 186 184 184 186 189 188 183 184 187 184 185 188 188 194 202 196 196 197 185 190 195 195 197 208 203 193 192 200 202 205 205
167 173 184 187 184 181 181 179 176 177 182 187 188 186 186 190 188 187 189 189 188 189 191 192 194 196 206 200 199 198 192 192 196 195 195 201 206 202 193 196 208 224 225
158 176 185 180 175 177 176 172 177 179 183 190 192 191 189 190 189 192 193 190 185 189 193 193 193 196 204 200 197 187 183 195 204 203 199 197 204 213 202 193 208 232 249
130 157 161 155 167 178 169 169 179 182 190 195 195 191 189 190 193 194 190 183 183 190 188 192 194 195 198 198 195 184 180 192 203 210 211 208 208 212 203 196 201 222 236
80 108 137 157 179 176 170 177 184 194 198 193 189 189 189 189 187 185 180 174 177 180 185 191 196 197 197 196 193 189 187 192 195 205 217 222 216 217 215 206 209 223 222
66 81 102 121 159 167 171 181 194 196 184 177 179 185 183 186 184 175 176 174 173 176 182 185 195 204 199 194 198 197 200 193 192 207 213 216 213 215 218 214 221 225 220
60 72 98 115 105 129 162 185 204 183 172 173 179 180 175 176 170 173 174 167 171 178 184 185 195 201 200 201 201 199 204 204 203 212 210 210 214 216 221 224 224 219 207
55 73 89 86 72 72 107 166 191 170 162 167 171 169 168 166 160 165 169 171 177 184 189 192 198 199 198 199 192 196 203 209 216 219 207 207 207 205 214 224 226 213 206
33 58 75 75 68 69 77 62 89 142 155 159 157 155 161 160 155 153 161 178 186 191 192 197 194 193 209 216 198 185 188 191 194 173 161 170 183 207 222 225 223 209 201
44 49 55 61 59 59 56 58 90 131 145 142 146 157 158 153 152 147 126 80 118 149 181 194 190 201 207 194 186 187 186 183 170 155 177 199 205 211 210 210 221 221 221